C2702 KLAL-KPIE

Flight info

Callsign C2702
Flight time 0h 18m
Altitude 8000
Route VFR
Aircraft C27J/M-V/N

Departure

Time 2026-04-22 02:19
Airport Lakeland Linder International Airport (KLAL)

Arrival

Time 2026-04-22 02:37
Airport St. Petersburg Clearwater International Airport (KPIE)
Time Latitude Longitude Altitude Speed Heading
2026-04-22 02:00 27.98705 -82.00744 143 ft 2 kts 113°
2026-04-22 02:00 27.98684 -82.00697 143 ft 13 kts 126°
2026-04-22 02:00 27.98624 -82.00661 143 ft 5 kts 213°
2026-04-22 02:00 27.98591 -82.00723 145 ft 15 kts 228°
2026-04-22 02:01 27.98449 -82.00749 147 ft 25 kts 207°
2026-04-22 02:01 27.98341 -82.00917 147 ft 30 kts 263°
2026-04-22 02:01 27.98342 -82.01178 146 ft 36 kts 269°
2026-04-22 02:01 27.98327 -82.01482 145 ft 41 kts 275°
2026-04-22 02:02 27.98325 -82.01789 146 ft 30 kts 263°
2026-04-22 02:02 27.98326 -82.02006 149 ft 12 kts 300°
2026-04-22 02:02 27.98392 -82.01974 148 ft 15 kts 47°
2026-04-22 02:02 27.98455 -82.01885 150 ft 12 kts 44°
2026-04-22 02:03 27.98472 -82.01866 150 ft 2 kts 39°
2026-04-22 02:03 27.98482 -82.01869 151 ft 2 kts 324°
2026-04-22 02:03 27.98496 -82.01882 151 ft 2 kts 333°
2026-04-22 02:03 27.98497 -82.01882 151 ft 0 kts 333°
2026-04-22 02:04 27.98465 -82.01865 150 ft 0 kts 314°
2026-04-22 02:04 27.98471 -82.01871 150 ft 0 kts 315°
2026-04-22 02:12 27.98478 -82.01893 150 ft 3 kts 241°
2026-04-22 02:12 27.98440 -82.01938 149 ft 13 kts 229°
2026-04-22 02:12 27.98371 -82.02040 149 ft 19 kts 278°
2026-04-22 02:12 27.98482 -82.02089 147 ft 19 kts 56°
2026-04-22 02:13 27.98572 -82.01963 147 ft 23 kts 47°
2026-04-22 02:13 27.98700 -82.01815 146 ft 30 kts 46°
2026-04-22 02:13 27.98797 -82.01688 146 ft 15 kts 54°
2026-04-22 02:13 27.98801 -82.01681 146 ft 1 kts 49°
2026-04-22 02:14 27.98815 -82.01675 146 ft 5 kts 17°
2026-04-22 02:14 27.98868 -82.01628 145 ft 15 kts 45°
2026-04-22 02:14 27.98966 -82.01516 142 ft 24 kts 47°
2026-04-22 02:14 27.99035 -82.01517 141 ft 13 kts 286°
2026-04-22 02:15 27.99041 -82.01647 141 ft 21 kts 271°
2026-04-22 02:15 27.99038 -82.01841 142 ft 29 kts 271°
2026-04-22 02:15 27.99042 -82.02100 141 ft 37 kts 271°
2026-04-22 02:15 27.99044 -82.02412 142 ft 37 kts 268°
2026-04-22 02:16 27.99039 -82.02692 141 ft 21 kts 268°
2026-04-22 02:16 27.99036 -82.02888 140 ft 30 kts 268°
2026-04-22 02:16 27.99041 -82.03156 137 ft 38 kts 268°
2026-04-22 02:16 27.99028 -82.03329 137 ft 5 kts 239°
2026-04-22 02:17 27.98997 -82.03351 138 ft 0 kts 188°
2026-04-22 02:18 27.98961 -82.03353 138 ft 10 kts 164°
2026-04-22 02:18 27.98928 -82.03269 139 ft 17 kts 91°
2026-04-22 02:18 27.98928 -82.03100 136 ft 32 kts 90°
2026-04-22 02:19 27.98927 -82.02538 138 ft 105 kts 90°
2026-04-22 02:19 27.98933 -82.01567 306 ft 130 kts 89°
2026-04-22 02:19 27.98943 -82.00512 798 ft 142 kts 90°
2026-04-22 02:19 27.98957 -81.99305 1047 ft 162 kts 83°
2026-04-22 02:20 27.99768 -81.98387 1135 ft 201 kts
2026-04-22 02:20 28.00760 -81.99420 1186 ft 219 kts 276°
2026-04-22 02:20 28.00930 -82.00976 1738 ft 175 kts 273°
2026-04-22 02:20 28.00945 -82.02320 1673 ft 172 kts 269°
2026-04-22 02:21 28.00936 -82.03656 1678 ft 170 kts 269°
2026-04-22 02:21 28.00938 -82.05002 1651 ft 173 kts 269°
2026-04-22 02:21 28.00947 -82.06378 1602 ft 177 kts 269°
2026-04-22 02:21 28.00949 -82.07782 1544 ft 180 kts 269°
2026-04-22 02:22 28.00943 -82.09191 1501 ft 178 kts 269°
2026-04-22 02:22 28.00924 -82.10591 1434 ft 176 kts 269°
2026-04-22 02:22 28.00903 -82.11972 1418 ft 175 kts 270°
2026-04-22 02:22 28.00887 -82.13339 1413 ft 176 kts 269°
2026-04-22 02:23 28.00875 -82.14728 1413 ft 177 kts 270°
2026-04-22 02:23 28.00870 -82.16119 1408 ft 174 kts 269°
2026-04-22 02:23 28.00858 -82.17489 1414 ft 176 kts 270°
2026-04-22 02:23 28.00850 -82.18858 1407 ft 171 kts 270°
2026-04-22 02:24 28.00843 -82.20201 1408 ft 172 kts 269°
2026-04-22 02:24 28.00833 -82.21554 1404 ft 170 kts 269°
2026-04-22 02:24 28.00820 -82.22883 1417 ft 169 kts 269°
2026-04-22 02:24 28.00803 -82.24221 1407 ft 169 kts 269°
2026-04-22 02:25 28.00790 -82.25547 1394 ft 169 kts 269°
2026-04-22 02:25 28.00776 -82.26886 1377 ft 172 kts 269°
2026-04-22 02:25 28.00757 -82.28251 1393 ft 176 kts 269°
2026-04-22 02:25 28.00737 -82.29632 1395 ft 175 kts 268°
2026-04-22 02:26 28.00712 -82.30995 1395 ft 172 kts 269°
2026-04-22 02:26 28.00689 -82.32330 1381 ft 167 kts 269°
2026-04-22 02:26 28.00666 -82.33628 1391 ft 163 kts 269°
2026-04-22 02:26 28.00646 -82.34901 1398 ft 160 kts 269°
2026-04-22 02:27 28.00609 -82.36172 1432 ft 160 kts 265°
2026-04-22 02:27 28.00172 -82.37284 1436 ft 154 kts 218°
2026-04-22 02:27 27.99319 -82.37989 1469 ft 153 kts 208°
2026-04-22 02:27 27.98476 -82.38726 1489 ft 153 kts 213°
2026-04-22 02:28 27.97652 -82.39500 1502 ft 155 kts 213°
2026-04-22 02:28 27.96828 -82.40304 1507 ft 158 kts 213°
2026-04-22 02:28 27.95990 -82.41122 1517 ft 161 kts 213°
2026-04-22 02:28 27.95137 -82.41950 1511 ft 162 kts 214°
2026-04-22 02:29 27.94281 -82.42780 1502 ft 163 kts 213°
2026-04-22 02:29 27.93427 -82.43518 1486 ft 162 kts 212°
2026-04-22 02:29 27.92585 -82.44342 1527 ft 163 kts 214°
2026-04-22 02:29 27.91722 -82.45178 1516 ft 163 kts 214°
2026-04-22 02:30 27.90865 -82.46011 1513 ft 163 kts 214°
2026-04-22 02:30 27.90007 -82.46831 1499 ft 161 kts 214°
2026-04-22 02:30 27.89161 -82.47652 1490 ft 160 kts 214°
2026-04-22 02:30 27.88322 -82.48468 1482 ft 158 kts 213°
2026-04-22 02:31 27.87491 -82.49268 1486 ft 157 kts 213°
2026-04-22 02:31 27.86659 -82.50077 1489 ft 158 kts 214°
2026-04-22 02:31 27.85830 -82.50891 1501 ft 159 kts 214°
2026-04-22 02:31 27.84984 -82.51704 1508 ft 159 kts 213°
2026-04-22 02:32 27.84131 -82.52525 1531 ft 164 kts 213°
2026-04-22 02:32 27.83244 -82.53362 1541 ft 167 kts 212°
2026-04-22 02:32 27.82355 -82.54214 1496 ft 167 kts 215°
2026-04-22 02:32 27.81478 -82.55071 1494 ft 166 kts 214°
2026-04-22 02:33 27.80715 -82.56056 1457 ft 173 kts 242°
2026-04-22 02:33 27.80691 -82.57396 1450 ft 172 kts 283°
2026-04-22 02:33 27.80912 -82.58715 1457 ft 171 kts 277°
2026-04-22 02:33 27.81004 -82.60052 1475 ft 171 kts 273°
2026-04-22 02:34 27.81082 -82.61388 1518 ft 174 kts 274°
2026-04-22 02:34 27.81159 -82.62757 1517 ft 175 kts 274°
2026-04-22 02:34 27.81238 -82.64140 1522 ft 177 kts 273°
2026-04-22 02:34 27.81330 -82.65517 1499 ft 172 kts 274°
2026-04-22 02:35 27.81431 -82.66828 1500 ft 164 kts 278°
2026-04-22 02:35 27.81954 -82.67879 1460 ft 151 kts 332°
2026-04-22 02:35 27.82882 -82.68347 1497 ft 145 kts 344°
2026-04-22 02:35 27.83812 -82.68595 1396 ft 140 kts 12°
2026-04-22 02:36 27.84812 -82.68446 1139 ft 144 kts 18°
2026-04-22 02:36 27.85788 -82.68216 916 ft 147 kts 16°
2026-04-22 02:36 27.86849 -82.68132 537 ft 154 kts
2026-04-22 02:36 27.87900 -82.68282 362 ft 149 kts 354°
2026-04-22 02:37 27.88915 -82.68468 254 ft 147 kts 354°
2026-04-22 02:37 27.89926 -82.68647 43 ft 148 kts 353°
2026-04-22 02:37 27.90897 -82.68811 34 ft 134 kts 353°
2026-04-22 02:37 27.91573 -82.68929 14 ft 39 kts 352°
2026-04-22 02:38 27.91833 -82.68971 16 ft 39 kts 352°
2026-04-22 02:38 27.92115 -82.69017 18 ft 42 kts 352°
2026-04-22 02:38 27.92329 -82.69076 15 ft 14 kts 300°
2026-04-22 02:38 27.92297 -82.69185 14 ft 18 kts 222°
2026-04-22 02:39 27.92161 -82.69193 14 ft 22 kts 173°
2026-04-22 02:39 27.91992 -82.69170 15 ft 26 kts 181°
2026-04-22 02:39 27.91807 -82.69141 16 ft 29 kts 171°
2026-04-22 02:39 27.91598 -82.69102 17 ft 32 kts 169°
2026-04-22 02:40 27.91436 -82.69110 17 ft 17 kts 226°
2026-04-22 02:40 27.91338 -82.69222 18 ft 24 kts 223°
2026-04-22 02:40 27.91235 -82.69325 18 ft 12 kts 225°
2026-04-22 02:40 27.91251 -82.69395 19 ft 13 kts 310°
2026-04-22 02:41 27.91292 -82.69447 20 ft 6 kts 355°
2026-04-22 02:41 27.91333 -82.69445 20 ft 0 kts 314°
2026-04-22 02:41 27.91333 -82.69457 20 ft 2 kts 255°
2026-04-22 02:41 27.91324 -82.69461 20 ft 2 kts 180°
2026-04-22 02:42 27.91315 -82.69452 21 ft 0 kts 132°
2026-04-22 02:42 27.91319 -82.69448 20 ft 0 kts 132°